[ hide orbit diagram ]
For accurate long-term ephemerides, please instead use our Horizons system.This orbit viewer was implemented using two-body methods, and hence should not be used for determining accurate long-term trajectories (over several years or decades) or planetary encounter circumstances.
Orbital Elements at Epoch 2459000.5 (2020-May-31.0) TDB
Reference: JPL 20 (heliocentric ecliptic J2000)
Element | Value | Uncertainty (1-sigma) | Units |
e | .131655936898524 | 5.5039e-08 | |
a | 2.32697671520822 | 2.4353e-08 | au |
q | 2.020616415626432 | 1.1542e-07 | au |
i | 7.302802483111594 | 4.8451e-06 | deg |
node | 126.9267741449255 | 4.5372e-05 | deg |
peri | 215.3718387946107 | 6.2596e-05 | deg |
M | 100.4913236171084 | 3.5937e-05 | deg |
tp | 2458638.580028542027 (2019-Jun-04.08002854) | 0.00013093 | TDB |
period | 1296.541681760556 3.55 | 2.0354e-05 5.573e-08 | d yr |
n | .2776617250832699 | 4.3589e-09 | deg/d |
Q | 2.633337014790008 | 2.756e-08 | au |
|
| | Orbit Determination Parameters
Additional Information
|
[ show covariance matrix ]
Physical Parameter Table
Parameter |
Symbol |
Value |
Units |
Sigma |
Reference |
Notes |
absolute magnitude |
H |
17.9 |
|
n/a |
MPO450509 |
|
|
487617 Ingethiering | Discovered 2012 Oct. 20 by Pan-STARRS 1 at Haleakala. |
Inge Thiering (b. 1962) is a high school teacher in Neckargemuend, Germany, who for many years has undertaken astronomical research programs with her students, including successful asteroid searches. Name suggested by D. D. Winnikes and M. Tritsch. |
NOTE: some special characters may not display properly (any characters within {} are an attempt to place the proper accent above a character) |
Reference: MPC batch dated 2019-08-27 | Last Updated: 2019-09-23 |
|
|